Volver al catálogo

STARLINK-36075

ActivoComunicacionesVLEO
NORAD 66905·PAYLOAD·🇺🇸 United States

Lanzado Dec 4, 2025 desde Vandenberg Space Force Base

Loading…

Próximos Pases (próximas 24 horas)

TLE

ActualizadoSource: CelesTrak SupGP

Época: Sep 14, 2026, 20:51 UTC

1 66905C 25283AD  26257.86923611  .00041459  00000+0  12248-2 0  2572
2 66905  53.1579 224.1119 0001452  94.3582  33.9943 15.34372771    13

Sigue STARLINK-36075 en tiempo real con AllMySat

Download on the App Store